Home   Weather   Charlotte   Past weeks

Flag for USA Past Weather in Charlotte, North Carolina, USA — Yesterday and Last 2 Weeks

Now
76 °F

Overcast.


Feels Like: 76 °F
Forecast: 73 / 85 °F
Wind: 10 mph from Southwest

Location: Charlotte / Douglas International Airport

Current Time: Jun 24, 2017 at 3:08:48 am

Latest Report: Jun 24, 2017 at 1:52 am


Visibility: 10 mi

Pressure: 29.86 "Hg

Humidity: 88%

Dew Point: 72 °F

Location of CharlotteLocation

Past Weather in Charlotte — Graph

°F

Charlotte Temperature Yesterday

Maximum temperature yesterday: 88 °F (at 2:52 pm)
Minimum temperature yesterday: 74 °F (at 12:52 am)
Average temperature yesterday: 79 °F

High & Low Weather Summary for the Past Weeks

 TemperatureHumidityPressure
High91 °F (Jun 14, 3:52 pm)93% (Jun 14, 12:52 am)30.24 "Hg (Jun 14, 12:52 am)
Low59 °F (Jun 9, 2:52 am)40% (Jun 11, 4:52 pm)29.81 "Hg (Jun 16, 3:52 am)
Average77 °F72%30.00 "Hg
* Reported Jun 9 1:52 am — Jun 24 1:52 am, Charlotte. Weather by CustomWeather, © 2017

Note: Actual official high and low records may vary slightly from our data, if they occured in-between our weather recording intervals... More about our weather records

Advertising

Charlotte Weather History for the Previous 24 Hours

Scroll right to see more
 ConditionsComfort  
Time TempWeatherWind HumidityBarometerVisibility
1:52 am
Sat, Jun 24
76 °FOvercast.10 mph88%29.86 "Hg10 mi
1:26 am76 °FPartly cloudy.7 mph88%29.90 "Hg10 mi
1:19 am75 °FThundershowers. Partly cloudy.7 mph89%29.90 "Hg10 mi
1:07 am75 °FThunderstorms. Passing clouds.7 mph89%29.91 "Hg10 mi
12:35 am81 °FThundershowers. Passing clouds.17 mph72%29.88 "Hg10 mi
11:52 pm
Fri, Jun 23
81 °FPassing clouds.14 mph69%29.85 "Hg10 mi
10:52 pm82 °FPassing clouds.13 mph65%29.86 "Hg10 mi
9:52 pm82 °FPassing clouds.13 mph67%29.85 "Hg10 mi
8:52 pm82 °FPassing clouds.8 mph65%29.85 "Hg10 mi
7:52 pm85 °FScattered clouds.9 mph57%29.85 "Hg10 mi
6:52 pm87 °FScattered clouds.14 mph51%29.84 "Hg10 mi
5:52 pm87 °FScattered clouds.16 mph53%29.86 "Hg10 mi
4:52 pm88 °FScattered clouds.17 mph52%29.88 "Hg10 mi
3:52 pm87 °FBroken clouds.15 mph55%29.90 "Hg10 mi
2:52 pm88 °FBroken clouds.17 mph54%29.92 "Hg10 mi
1:52 pm86 °FPartly sunny.16 mph59%29.95 "Hg10 mi
12:52 pm85 °FBroken clouds.13 mph63%29.96 "Hg10 mi
12:11 pm84 °FBroken clouds.14 mph65%30.01 "Hg10 mi
11:52 am83 °FPartly sunny.12 mph68%29.98 "Hg10 mi
10:52 am81 °FPartly sunny.10 mph74%29.99 "Hg10 mi
9:52 am79 °FPartly sunny.10 mph79%29.99 "Hg10 mi
9:08 am77 °FMostly cloudy.9 mph85%30.02 "Hg10 mi
8:00 am76 °FCloudy.10 mph88%30.03 "Hg10 mi
7:41 am76 °FLow clouds.9 mph88%30.03 "Hg10 mi
6:52 am76 °FLow clouds.10 mph88%29.99 "Hg10 mi
6:17 am75 °FLight rain. Mostly cloudy.10 mph90%30.00 "Hg10 mi
5:52 am75 °FMostly cloudy.9 mph90%29.98 "Hg10 mi
5:35 am75 °FPassing clouds.8 mph90%30.01 "Hg10 mi
5:20 am75 °FPassing clouds.9 mph90%30.01 "Hg10 mi
4:52 am75 °FPassing clouds.9 mph90%29.98 "Hg10 mi
3:52 am75 °FPassing clouds.8 mph90%29.99 "Hg8 mi
3:19 am75 °FLight rain. Partly cloudy.8 mph90%30.02 "Hg8 mi
Weather by CustomWeather, © 2017

See weather overviewHow to use our weather pages